Date String (YYYY-MM-DD hh:mm:ss) UTC,Instrument flags,absolute air pressure of the measurement (hPa),sample flow rate (lpm),inlet stack bypass flow (lpm),air temperature of the measurement (°C),ambient temperature measured by the external sensor (°C),aerosol sample conditioner tube jacket temperature (°C),OPC LED temperature (°C),internal box temperature (°C),relative humidity of the measurement (%),span deviation,mass concentration of particles derived from Lorenz-Mie calculation of OPC scattering (μg/m³),mass concentration of particles derived from Lorenz-Mie calculation of OPC scattering (μg/m³),mass concentration of particles derived from Lorenz-Mie calculation of OPC scattering (μg/m³)
DateTimeUTC,F1_M11,P_M11,Q1_M11,Q2_M11,T1_M11,T2_M11,T3_M11,T4_M11,T5_M11,U1_M11,ZSPAN_M11,X0_M11,X2_M11,X1_M11
2024-05-13 17:00:00,SystemResetWarning,0827.9,5.00,000.00,024.7,024.2,000.0,032.8,026.5,022.5,0000.0,0009.08,0003.52,0002.68
2024-05-13 17:01:00,SystemResetWarning,0827.8,5.01,000.00,024.7,024.3,000.0,032.8,026.6,023.1,0000.0,0008.86,0003.47,0002.67
2024-05-13 17:02:00,SystemResetWarning,0827.8,4.99,000.00,024.8,024.4,000.0,032.8,026.7,024.1,0000.0,0008.65,0003.46,0002.65
2024-05-13 17:03:00,SystemResetWarning,0827.8,4.99,000.00,024.9,024.5,000.0,032.9,026.7,023.7,0000.0,0008.11,0003.46,0002.64
2024-05-13 17:04:00,SystemResetWarning,0828.0,5.01,000.00,024.9,024.5,000.0,032.9,026.7,023.3,0000.0,0008.33,0003.49,0002.64
2024-05-13 17:05:00,SystemResetWarning,0827.8,4.99,000.00,024.8,023.2,000.0,033.0,026.1,023.8,0000.0,0008.25,0003.52,0002.68
2024-05-13 17:06:00,SystemResetWarning,0827.7,5.00,000.00,024.4,021.4,000.0,033.0,025.1,024.4,0000.0,0008.25,0003.58,0002.72
2024-05-13 17:07:00,SystemResetWarning,0827.8,5.02,000.00,024.2,021.5,000.0,033.0,025.1,025.0,0000.0,0007.83,0003.58,0002.76
2024-05-13 17:08:00,SystemResetWarning,0827.8,4.98,000.00,024.1,021.9,000.0,032.9,025.3,024.9,0000.0,0007.63,0003.62,0002.81
2024-05-13 17:09:00,SystemResetWarning,0827.7,5.00,000.00,024.1,022.3,000.0,032.8,025.5,025.4,0000.0,0008.02,0003.67,0002.86
2024-05-13 17:10:00,SystemResetWarning,0827.8,5.01,000.00,024.2,022.6,000.0,032.7,025.7,025.3,0000.0,0008.62,0003.64,0002.88
2024-05-13 17:11:00,SystemResetWarning,0827.7,5.02,000.00,024.2,022.9,000.0,032.6,025.9,025.2,0000.0,0009.02,0003.69,0002.93
2024-05-13 17:12:00,SystemResetWarning,0827.8,4.98,000.00,024.3,023.2,000.0,032.6,026.0,025.2,0000.0,0009.26,0003.78,0003.00
2024-05-13 17:13:00,SystemResetWarning,0827.8,5.00,000.00,024.4,023.4,000.0,032.6,026.1,024.9,0000.0,0009.51,0003.80,0003.06
2024-05-13 17:14:00,SystemResetWarning,0827.8,5.01,000.00,024.4,023.6,000.0,032.6,026.2,025.3,0000.0,0009.76,0003.84,0003.10
2024-05-13 17:15:00,SystemResetWarning,0827.8,5.01,000.00,024.5,023.8,000.0,032.6,026.3,025.5,0000.0,0009.88,0003.84,0003.13
2024-05-13 17:16:00,SystemResetWarning,0827.8,5.00,000.00,024.6,023.9,000.0,032.6,026.4,026.0,0000.0,0010.07,0003.83,0003.15
2024-05-13 17:17:00,SystemResetWarning,0827.8,5.00,000.00,024.6,024.1,000.0,032.7,026.5,025.1,0000.0,0010.09,0003.80,0003.16
2024-05-13 17:18:00,SystemResetWarning,0827.7,5.00,000.00,024.7,024.2,000.0,032.7,026.6,024.8,0000.0,0010.21,0003.82,0003.17
2024-05-13 17:19:00,SystemResetWarning,0827.7,4.99,000.00,024.8,024.3,000.0,032.7,026.6,025.7,0000.0,0010.96,0003.85,0003.18
2024-05-13 17:20:00,SystemResetWarning,0827.7,5.00,000.00,024.8,024.4,000.0,032.8,026.7,025.5,0000.0,0010.69,0003.88,0003.19
2024-05-13 17:21:00,SystemResetWarning,0827.7,5.00,000.00,024.9,024.5,000.0,032.8,026.8,025.3,0000.0,0010.18,0003.91,0003.20
2024-05-13 17:22:00,SystemResetWarning,0827.7,5.00,000.00,024.9,024.6,000.0,032.9,026.8,024.6,0000.0,0010.42,0003.89,0003.19
2024-05-13 17:23:00,SystemResetWarning,0827.7,5.00,000.00,024.9,023.6,000.0,033.0,026.3,024.9,0000.0,0011.57,0003.87,0003.18
2024-05-13 17:24:00,SystemResetWarning,0827.7,5.00,000.00,024.5,021.7,000.0,033.0,025.3,025.6,0000.0,0011.50,0003.87,0003.18
2024-05-13 17:25:00,SystemResetWarning,0827.5,5.01,000.00,024.3,021.6,000.0,033.0,025.1,026.4,0000.0,0011.85,0003.89,0003.19
2024-05-13 17:26:00,SystemResetWarning,0827.6,5.01,000.00,024.2,022.0,000.0,032.9,025.3,026.7,0000.0,0011.78,0003.92,0003.18
2024-05-13 17:27:00,SystemResetWarning,0827.7,5.00,000.00,024.2,022.3,000.0,032.8,025.5,025.8,0000.0,0011.64,0003.95,0003.18
2024-05-13 17:28:00,SystemResetWarning,0827.7,5.01,000.00,024.2,022.7,000.0,032.7,025.8,025.7,0000.0,0011.54,0003.94,0003.19
2024-05-13 17:29:00,SystemResetWarning,0827.7,4.99,000.00,024.3,023.0,000.0,032.7,026.0,025.9,0000.0,0011.60,0003.97,0003.19
2024-05-13 17:30:00,SystemResetWarning,0827.7,4.99,000.00,024.4,023.3,000.0,032.6,026.1,026.2,0000.0,0010.69,0003.96,0003.19
2024-05-13 17:31:00,SystemResetWarning,0827.7,5.01,000.00,024.4,023.5,000.0,032.6,026.2,024.7,0000.0,0010.50,0003.92,0003.18
2024-05-13 17:32:00,SystemResetWarning,0827.7,5.01,000.00,024.5,023.7,000.0,032.6,026.3,023.7,0000.0,0010.38,0003.90,0003.17
2024-05-13 17:33:00,SystemResetWarning,0827.7,4.98,000.00,024.5,023.9,000.0,032.7,026.4,023.5,0000.0,0010.18,0003.88,0003.16
2024-05-13 17:34:00,SystemResetWarning,0827.7,5.00,000.00,024.6,024.0,000.0,032.7,026.5,023.2,0000.0,0008.52,0003.88,0003.16
2024-05-13 17:35:00,SystemResetWarning,0827.7,5.01,000.00,024.7,024.1,000.0,032.7,026.6,022.9,0000.0,0008.46,0003.86,0003.15
2024-05-13 17:36:00,SystemResetWarning,0827.7,5.01,000.00,024.7,024.3,000.0,032.7,026.6,024.0,0000.0,0007.77,0003.82,0003.13
2024-05-13 17:37:00,SystemResetWarning,0827.7,4.99,000.00,024.8,024.4,000.0,032.8,026.7,023.4,0000.0,0007.72,0003.75,0003.12
2024-05-13 17:38:00,SystemResetWarning,0827.7,4.99,000.00,024.9,024.5,000.0,032.8,026.7,023.7,0000.0,0007.54,0003.72,0003.10
2024-05-13 17:39:00,SystemResetWarning,0827.7,5.00,000.00,024.9,024.3,000.0,032.9,026.6,024.5,0000.0,0007.77,0003.71,0003.10
2024-05-13 17:40:00,SystemResetWarning,0827.6,5.00,000.00,024.7,022.6,000.0,033.0,025.7,024.8,0000.0,0008.59,0003.67,0003.08
2024-05-13 17:41:00,SystemResetWarning,0827.5,5.00,000.00,024.3,021.3,000.0,033.0,025.1,025.9,0000.0,0008.52,0003.65,0003.05
2024-05-13 17:42:00,SystemResetWarning,0827.5,5.02,000.00,024.2,021.7,000.0,032.9,025.2,026.1,0000.0,0008.58,0003.64,0003.04
2024-05-13 17:43:00,SystemResetWarning,0827.5,5.01,000.00,024.1,022.1,000.0,032.8,025.4,026.9,0000.0,0009.29,0003.64,0003.06
2024-05-13 17:44:00,SystemResetWarning,0827.6,5.00,000.00,024.2,022.4,000.0,032.7,025.6,026.7,0000.0,0009.72,0003.70,0003.08
2024-05-13 17:45:00,SystemResetWarning,0827.5,5.00,000.00,024.2,022.8,000.0,032.6,025.8,026.3,0000.0,0010.02,0003.77,0003.10
2024-05-13 17:46:00,SystemResetWarning,0827.5,4.99,000.00,024.3,023.1,000.0,032.6,026.0,025.9,0000.0,0010.15,0003.80,0003.12
2024-05-13 17:47:00,SystemResetWarning,0827.9,5.00,000.00,024.3,023.3,000.0,032.6,026.1,025.9,0000.0,0010.40,0003.81,0003.13
2024-05-13 17:48:00,SystemResetWarning,0827.8,4.99,000.00,024.4,023.6,000.0,032.6,026.3,026.3,0000.0,0011.65,0003.85,0003.14
2024-05-13 17:49:00,SystemResetWarning,0827.7,5.00,000.00,024.5,023.7,000.0,032.6,026.3,025.6,0000.0,0012.38,0003.87,0003.15
2024-05-13 17:50:00,SystemResetWarning,0827.4,5.01,000.00,024.6,023.9,000.0,032.6,026.4,026.1,0000.0,0012.42,0003.90,0003.16
2024-05-13 17:51:00,SystemResetWarning,0827.4,5.01,000.00,024.6,024.1,000.0,032.6,026.5,027.3,0000.0,0011.48,0003.93,0003.17
2024-05-13 17:52:00,SystemResetWarning,0827.6,5.01,000.00,024.7,024.2,000.0,032.7,026.6,027.2,0000.0,0011.71,0003.95,0003.18
2024-05-13 17:53:00,SystemResetWarning,0827.8,4.99,000.00,024.8,024.3,000.0,032.7,026.7,027.5,0000.0,0012.27,0003.98,0003.21
2024-05-13 17:54:00,SystemResetWarning,0827.6,4.99,000.00,024.8,024.1,000.0,032.8,026.5,027.2,0000.0,0011.68,0003.99,0003.22
2024-05-13 17:55:00,SystemResetWarning,0827.4,5.00,000.00,024.6,022.4,000.0,032.9,025.6,027.7,0000.0,0011.23,0003.98,0003.23
2024-05-13 17:56:00,SystemResetWarning,0827.4,5.00,000.00,024.2,021.4,000.0,032.9,025.0,028.3,0000.0,0011.52,0003.93,0003.25
2024-05-13 17:57:00,SystemResetWarning,0827.4,5.02,000.00,024.1,021.7,000.0,032.8,025.2,028.2,0000.0,0012.01,0003.88,0003.25
2024-05-13 17:58:00,SystemResetWarning,0827.4,5.00,000.00,024.1,022.1,000.0,032.7,025.4,027.8,0000.0,0011.70,0003.90,0003.25
2024-05-13 17:59:00,SystemResetWarning,0827.4,4.99,000.00,024.1,022.5,000.0,032.6,025.6,028.4,0000.0,0011.31,0003.94,0003.26
